Location: Cabrera Baja
(40.4089°N, 4.3354°W)
Time: 03:21:34
(UTC+00:00)

CZ-4B R/B - Pass Details

Date: 14 July 2020
Orbit: 702 x 803 km, 98.8° (Epoch: 03 August)

Event Time Altitude Azimuth Distance (km) Brightness Sun altitude
Rises 02:20:27 0° 13° (NNE) 3,236 8.0 -22.2°
Reaches altitude 10° 02:22:47 10° 14° (NNE) 2,290 7.0 -22.0°
Maximum altitude 02:27:49 89° 100° (E) 746 3.3 -21.5°
Enters shadow 02:29:11 49° 194° (SSW) 941 3.5 -21.4°
